Location: Gunung Kajang
(2.4167°N, 113.7167°E)
Time: 23:21:20
(UTC+00:00)

deb Olympus - Pass Details

Date: 29 May 2022
Orbit: 398 x 35192 km, 6.7° (Epoch: 24 June)

Event Time Altitude Azimuth Distance (km) Brightness Sun altitude
Exits shadow 20:39:26 44° 180° (S) 904 3.6 -22.9°
Maximum altitude 20:39:46 45° 164° (SSE) 935 3.8 -22.8°
Drops below altitude 10° 20:48:08 10° 92° (E) 4,626 8.4 -20.9°
Sets 20:57:01 0° 87° (E) 8,494 10.1 -18.9°
